NORTHERN NASSAU  -  Flash Flood Watch Flash Flood Watch     Rip Current Statement Rip Current Statement        NORTHERN QUEENS  -  Flash Flood Watch Flash Flood Watch     Rip Current Statement Rip Current Statement        SOUTHERN NASSAU  -  Flash Flood Watch Flash Flood Watch     Rip Current Statement Rip Current Statement        SOUTHERN QUEENS  -  Flash Flood Watch Flash Flood Watch     Rip Current Statement Rip Current Statement        NORTHEAST SUFFOLK  -  Rip Current Statement Rip Current Statement        NORTHWEST SUFFOLK  -  Rip Current Statement Rip Current Statement        SOUTHEAST SUFFOLK  -  Rip Current Statement Rip Current Statement        SOUTHWEST SUFFOLK  -  Rip Current Statement Rip Current Statement      

Active alerts

Northern Queens
  Details for Northern Queens Flash Flood Watch  +1 additional alert
Southern Queens
  Details for Southern Queens Flash Flood Watch  +1 additional alert
Northern Nassau
  Details for Northern Nassau Flash Flood Watch  +1 additional alert
Southern Nassau
  Details for Southern Nassau Flash Flood Watch  +1 additional alert
Northwest Suffolk
  Details for Northwest Suffolk Rip Current Statement
Southwest Suffolk
  Details for Southwest Suffolk Rip Current Statement
Northeast Suffolk
  Details for Northeast Suffolk Rip Current Statement
Southeast Suffolk
  Details for Southeast Suffolk Rip Current Statement


WXM80 ListenWXM80 Stop

You find our weather info also at:

UK Metoffice

WeatherCloud

Weather Underground

Northeastern Weather Network

AWEKAS

Citizen Weather Observer Program (CWOP)

HAMweather, WeatherForYou, PWS Weather


Weather Underground History page Text

Daily Summary for February 5, 2018 Units:  English    Metric   Both
« Previous Day
Next Day »
Daily Weekly Monthly Yearly Custom
  High: Low: Average:
Temperature: 42.3 °F 24.9 °F 34.1 °F
Dew Point: 41.2 °F 13.0 °F 24.8 °F
Humidity: 96 % 47 % 70 %
Wind Speed: 13.3 mph 0.0 mph 4.9 mph
Wind Gust: 22.0 mph - -
Wind:- - West
Pressure: 30.06 in 29.34 in -
Precipitation: 0.05 in    
Historical Graphs
 
 
Tabular Data for February 5, 2018
Time Temperature Dew Point Pressure Wind Wind Speed Wind Gust Humidity Rainfall Rate (Hourly)
00:04 41.3 °F 40.0 °F 29.34 in West 1.6 mph 3.5 mph 95 % 0.06 in
00:09 41.2 °F 39.9 °F 29.34 in WSW 1.3 mph 3.5 mph 95 % 0.06 in
00:14 41.4 °F 40.1 °F 29.34 in WNW 3.5 mph 5.8 mph 95 % 0.05 in
00:19 41.6 °F 40.5 °F 29.34 in West 3.2 mph 5.8 mph 96 % 0.05 in
00:24 41.8 °F 40.7 °F 29.34 in WSW 3.2 mph 7.0 mph 96 % 0.05 in
00:29 42.2 °F 41.1 °F 29.34 in West 5.5 mph 11.5 mph 96 % 0.05 in
00:34 42.3 °F 41.2 °F 29.34 in NW 3.7 mph 9.2 mph 96 % 0.05 in
00:39 42.3 °F 41.2 °F 29.34 in West 3.9 mph 9.2 mph 96 % 0.06 in
00:44 42.2 °F 41.1 °F 29.34 in West 5.7 mph 7.0 mph 96 % 0.06 in
00:49 42.1 °F 41.0 °F 29.34 in NW 4.5 mph 8.1 mph 96 % 0.05 in
00:54 41.9 °F 40.8 °F 29.34 in WNW 4.0 mph 11.5 mph 96 % 0.05 in
01:00 41.8 °F 40.7 °F 29.34 in WSW 5.1 mph 6.9 mph 96 % 0.04 in
01:04 41.7 °F 40.6 °F 29.34 in West 4.2 mph 7.0 mph 96 % 0.04 in
01:10 41.6 °F 40.5 °F 29.34 in West 2.5 mph 4.6 mph 96 % 0.03 in
01:15 41.5 °F 40.4 °F 29.34 in WNW 3.3 mph 6.9 mph 96 % 0.03 in
01:20 41.4 °F 40.3 °F 29.34 in West 1.8 mph 4.6 mph 96 % 0.02 in
01:25 41.3 °F 40.2 °F 29.34 in WNW 3.5 mph 6.9 mph 96 % 0.02 in
01:30 41.1 °F 40.0 °F 29.35 in West 2.8 mph 4.6 mph 96 % 0.01 in
01:35 40.9 °F 39.8 °F 29.35 in WSW 2.3 mph 3.5 mph 96 % 0.01 in
01:40 40.7 °F 39.6 °F 29.35 in WSW 1.4 mph 3.5 mph 96 % 0.00 in
01:45 40.6 °F 39.5 °F 29.35 in Calm     96 % 0.01 in
01:50 40.4 °F 39.4 °F 29.35 in WSW 0.1 mph 2.3 mph 96 % 0.01 in
01:55 40.1 °F 39.1 °F 29.35 in West 1.3 mph 3.5 mph 96 % 0.01 in
02:00 39.8 °F 38.8 °F 29.35 in Calm     96 % 0.01 in
02:05 39.7 °F 38.4 °F 29.35 in West 1.3 mph 2.3 mph 95 % 0.01 in
02:10 39.5 °F 38.2 °F 29.35 in WSW 2.5 mph 3.5 mph 95 % 0.01 in
02:15 39.3 °F 38.0 °F 29.34 in WSW 2.0 mph 3.5 mph 95 % 0.01 in
02:20 39.2 °F 37.9 °F 29.35 in West 4.0 mph 6.9 mph 95 % 0.01 in
02:25 39.0 °F 37.7 °F 29.35 in WSW 3.4 mph 4.0 mph 95 % 0.01 in
02:31 38.9 °F 37.9 °F 29.36 in WSW 5.0 mph 9.0 mph 96 % 0.00 in
02:36 38.9 °F 37.9 °F 29.36 in WSW 3.0 mph 8.0 mph 96 % 0.00 in
02:41 38.8 °F 37.8 °F 29.36 in WSW 2.0 mph 7.0 mph 96 % 0.00 in
02:46 38.8 °F 37.8 °F 29.36 in West 6.0 mph 12.0 mph 96 % 0.00 in
02:51 38.8 °F 37.8 °F 29.37 in WSW 10.0 mph 16.0 mph 96 % 0.00 in
02:56 38.7 °F 37.7 °F 29.37 in WSW 7.0 mph 15.0 mph 96 % 0.00 in
03:01 38.7 °F 37.7 °F 29.37 in WSW 6.5 mph 11.5 mph 96 % 0.00 in
03:06 38.6 °F 37.6 °F 29.37 in West 6.0 mph 16.0 mph 96 % 0.00 in
03:11 38.5 °F 37.2 °F 29.36 in West 6.2 mph 10.4 mph 95 % 0.00 in
03:16 38.4 °F 37.4 °F 29.37 in West 6.0 mph 13.0 mph 96 % 0.00 in
03:21 38.3 °F 37.0 °F 29.38 in West 7.0 mph 12.0 mph 95 % 0.00 in
03:26 38.2 °F 36.9 °F 29.38 in West 7.0 mph 13.0 mph 95 % 0.00 in
03:31 38.0 °F 36.7 °F 29.38 in West 7.0 mph 13.0 mph 95 % 0.00 in
03:36 37.9 °F 36.6 °F 29.38 in West 3.0 mph 15.0 mph 95 % 0.00 in
03:41 37.8 °F 36.5 °F 29.39 in West 3.0 mph 13.0 mph 95 % 0.00 in
03:46 37.7 °F 36.4 °F 29.39 in West 3.0 mph 12.0 mph 95 % 0.00 in
03:51 37.6 °F 36.3 °F 29.39 in WSW 3.0 mph 10.0 mph 95 % 0.00 in
03:56 37.5 °F 36.2 °F 29.40 in WSW 4.4 mph 9.2 mph 95 % 0.00 in
04:01 37.3 °F 36.0 °F 29.39 in WSW 4.6 mph 6.0 mph 95 % 0.00 in
04:06 37.2 °F 35.9 °F 29.40 in WNW 8.1 mph 11.5 mph 95 % 0.00 in
04:11 37.2 °F 35.9 °F 29.40 in West 9.2 mph 18.4 mph 95 % 0.00 in
04:16 37.1 °F 35.8 °F 29.41 in West 4.2 mph 12.7 mph 95 % 0.00 in
04:21 37.0 °F 35.4 °F 29.41 in SW 5.4 mph 8.1 mph 94 % 0.00 in
04:26 37.0 °F 35.4 °F 29.40 in West 6.8 mph 11.5 mph 94 % 0.00 in
04:31 36.9 °F 35.3 °F 29.41 in WSW 4.8 mph 9.2 mph 94 % 0.00 in
04:36 36.9 °F 35.3 °F 29.41 in SW 5.4 mph 10.4 mph 94 % 0.00 in
04:41 36.8 °F 35.2 °F 29.41 in SW 3.7 mph 10.0 mph 94 % 0.00 in
04:46 36.7 °F 35.1 °F 29.42 in WSW 5.2 mph 8.0 mph 94 % 0.00 in
04:51 36.7 °F 35.1 °F 29.42 in West 8.1 mph 10.4 mph 94 % 0.00 in
04:56 36.6 °F 35.0 °F 29.42 in WSW 5.0 mph 9.2 mph 94 % 0.00 in
05:01 36.5 °F 34.7 °F 29.42 in WNW 2.8 mph 5.8 mph 93 % 0.00 in
05:06 36.5 °F 34.9 °F 29.42 in WSW 4.4 mph 10.4 mph 94 % 0.00 in
05:12 36.5 °F 34.7 °F 29.42 in WSW 5.2 mph 11.5 mph 93 % 0.00 in
05:17 36.5 °F 34.7 °F 29.42 in SW 7.8 mph 15.0 mph 93 % 0.00 in
05:22 36.6 °F 34.8 °F 29.43 in West 5.3 mph 12.7 mph 93 % 0.00 in
05:27 36.7 °F 34.9 °F 29.44 in West 3.8 mph 11.5 mph 93 % 0.00 in
05:32 36.7 °F 34.9 °F 29.44 in SW 4.9 mph 16.1 mph 93 % 0.00 in
05:37 36.8 °F 35.0 °F 29.44 in West 2.4 mph 9.2 mph 93 % 0.00 in
05:42 36.8 °F 34.7 °F 29.45 in WSW 1.4 mph 8.1 mph 92 % 0.00 in
05:47 36.8 °F 34.7 °F 29.45 in WSW 7.2 mph 9.2 mph 92 % 0.00 in
05:52 36.8 °F 34.7 °F 29.45 in SSW 4.9 mph 13.0 mph 92 % 0.00 in
05:57 36.9 °F 34.8 °F 29.46 in SW 7.5 mph 11.5 mph 92 % 0.00 in
06:02 36.9 °F 34.8 °F 29.47 in WSW 3.4 mph 12.0 mph 92 % 0.00 in
06:07 36.9 °F 34.8 °F 29.47 in SSW 6.8 mph 7.0 mph 92 % 0.00 in
06:12 36.9 °F 34.8 °F 29.47 in West 7.0 mph 10.0 mph 92 % 0.00 in
06:17 37.0 °F 34.9 °F 29.47 in WSW 4.6 mph 10.4 mph 92 % 0.00 in
06:22 37.0 °F 34.9 °F 29.48 in West 3.7 mph 6.0 mph 92 % 0.00 in
06:27 37.0 °F 34.6 °F 29.47 in WSW 3.8 mph 6.9 mph 91 % 0.00 in
06:32 37.0 °F 34.6 °F 29.48 in WSW 4.5 mph 6.0 mph 91 % 0.00 in
06:37 37.0 °F 34.6 °F 29.48 in WSW 2.6 mph 10.4 mph 91 % 0.00 in
06:42 37.0 °F 34.6 °F 29.48 in WSW 6.3 mph 11.5 mph 91 % 0.00 in
06:48 37.0 °F 34.6 °F 29.49 in SW 4.8 mph 6.0 mph 91 % 0.00 in
06:53 37.0 °F 34.6 °F 29.49 in West 5.5 mph 9.2 mph 91 % 0.00 in
06:58 37.0 °F 34.6 °F 29.50 in WSW 4.3 mph 6.9 mph 91 % 0.00 in
07:03 37.1 °F 34.7 °F 29.50 in WNW 5.0 mph 15.0 mph 91 % 0.00 in
07:08 37.1 °F 34.4 °F 29.51 in WNW 4.0 mph 9.2 mph 90 % 0.00 in
07:13 37.2 °F 34.5 °F 29.51 in West 4.3 mph 8.1 mph 90 % 0.00 in
07:18 37.2 °F 34.5 °F 29.52 in WSW 4.5 mph 9.2 mph 90 % 0.00 in
07:23 37.3 °F 34.6 °F 29.52 in WSW 2.6 mph 5.8 mph 90 % 0.00 in
07:28 37.3 °F 34.6 °F 29.53 in West 6.5 mph 8.1 mph 90 % 0.00 in
07:33 37.3 °F 34.6 °F 29.53 in West 2.7 mph 7.0 mph 90 % 0.00 in
07:38 37.3 °F 34.6 °F 29.53 in WSW 5.1 mph 9.0 mph 90 % 0.00 in
07:43 37.4 °F 34.7 °F 29.54 in West 2.2 mph 6.0 mph 90 % 0.00 in
07:48 37.4 °F 34.7 °F 29.54 in West 2.4 mph 5.0 mph 90 % 0.00 in
07:53 37.5 °F 34.8 °F 29.55 in WSW 4.2 mph 8.1 mph 90 % 0.00 in
07:58 37.6 °F 34.9 °F 29.55 in WNW 7.5 mph 12.7 mph 90 % 0.00 in
08:03 37.8 °F 34.8 °F 29.56 in WSW 7.2 mph 13.0 mph 89 % 0.00 in
08:09 38.0 °F 35.0 °F 29.56 in West 3.7 mph 5.8 mph 89 % 0.00 in
08:14 38.2 °F 35.0 °F 29.57 in SW 3.9 mph 9.2 mph 88 % 0.00 in
08:19 38.4 °F 34.9 °F 29.58 in NW 4.8 mph 11.5 mph 87 % 0.00 in
08:24 38.8 °F 35.3 °F 29.58 in NNW 6.3 mph 11.5 mph 87 % 0.00 in
08:29 39.0 °F 35.2 °F 29.58 in NW 6.2 mph 13.8 mph 86 % 0.00 in
08:34 39.2 °F 34.8 °F 29.58 in NW 5.7 mph 12.7 mph 84 % 0.00 in
08:39 39.1 °F 33.8 °F 29.60 in West 13.1 mph 21.9 mph 81 % 0.00 in
08:44 38.9 °F 32.9 °F 29.60 in WNW 9.7 mph 19.6 mph 79 % 0.00 in
08:49 38.8 °F 32.8 °F 29.61 in NW 9.1 mph 12.7 mph 79 % 0.00 in
08:54 38.7 °F 32.1 °F 29.61 in West 7.9 mph 18.4 mph 77 % 0.00 in
08:59 38.6 °F 31.7 °F 29.62 in WNW 6.2 mph 16.0 mph 76 % 0.00 in
09:04 38.6 °F 31.4 °F 29.62 in NW 12.0 mph 19.6 mph 75 % 0.00 in
09:09 38.4 °F 30.8 °F 29.63 in West 8.0 mph 19.6 mph 74 % 0.00 in
09:14 38.2 °F 30.3 °F 29.64 in West 9.4 mph 15.0 mph 73 % 0.00 in
09:19 38.0 °F 30.1 °F 29.64 in West 6.4 mph 15.0 mph 73 % 0.00 in
09:24 37.6 °F 29.0 °F 29.65 in NW 12.1 mph 20.0 mph 71 % 0.00 in
09:30 37.1 °F 28.6 °F 29.66 in WNW 13.3 mph 19.6 mph 71 % 0.00 in
09:35 36.9 °F 28.4 °F 29.66 in WNW 10.2 mph 19.6 mph 71 % 0.00 in
09:40 36.8 °F 28.6 °F 29.67 in West 7.3 mph 11.5 mph 72 % 0.00 in
09:45 36.8 °F 28.3 °F 29.67 in WSW 8.2 mph 17.3 mph 71 % 0.00 in
09:50 36.9 °F 28.0 °F 29.68 in West 9.8 mph 16.1 mph 70 % 0.00 in
09:55 36.7 °F 27.1 °F 29.68 in WNW 7.5 mph 18.4 mph 68 % 0.00 in
10:00 36.4 °F 26.8 °F 29.69 in WNW 7.2 mph 11.5 mph 68 % 0.00 in
10:05 36.3 °F 26.4 °F 29.70 in WNW 9.5 mph 19.6 mph 67 % 0.00 in
10:10 36.2 °F 26.3 °F 29.70 in WNW 6.5 mph 11.5 mph 67 % 0.00 in
10:15 36.0 °F 25.7 °F 29.70 in WNW 8.5 mph 15.0 mph 66 % 0.00 in
10:20 35.9 °F 25.6 °F 29.71 in WNW 7.7 mph 20.7 mph 66 % 0.00 in
10:25 35.5 °F 24.5 °F 29.72 in WNW 11.1 mph 19.6 mph 64 % 0.00 in
10:30 35.1 °F 24.5 °F 29.73 in WNW 7.2 mph 16.0 mph 65 % 0.00 in
10:35 34.7 °F 24.5 °F 29.74 in NNE 11.1 mph 19.6 mph 66 % 0.00 in
10:40 34.3 °F 24.1 °F 29.73 in SW 9.1 mph 19.0 mph 66 % 0.00 in
10:45 34.0 °F 23.8 °F 29.75 in WNW 5.3 mph 18.4 mph 66 % 0.00 in
10:50 33.6 °F 23.4 °F 29.74 in West 11.0 mph 18.4 mph 66 % 0.00 in
10:55 33.6 °F 23.4 °F 29.74 in WSW 8.9 mph 17.3 mph 66 % 0.00 in
11:00 33.8 °F 23.6 °F 29.75 in WSW 10.8 mph 16.1 mph 66 % 0.00 in
11:05 34.1 °F 23.9 °F 29.75 in WNW 7.0 mph 17.0 mph 66 % 0.00 in
11:10 34.3 °F 24.1 °F 29.75 in WNW 9.0 mph 20.0 mph 66 % 0.00 in
11:15 34.4 °F 24.2 °F 29.75 in WNW 7.0 mph 18.0 mph 66 % 0.00 in
11:21 34.4 °F 23.8 °F 29.75 in WNW 7.0 mph 22.0 mph 65 % 0.00 in
11:26 34.5 °F 24.3 °F 29.76 in West 7.0 mph 14.0 mph 66 % 0.00 in
11:30 34.6 °F 23.7 °F 29.75 in West 7.0 mph 17.0 mph 64 % 0.00 in
11:35 34.7 °F 23.8 °F 29.76 in WNW 8.0 mph 17.0 mph 64 % 0.00 in
11:40 34.8 °F 23.9 °F 29.76 in WNW 7.0 mph 17.0 mph 64 % 0.00 in
11:45 34.9 °F 23.9 °F 29.76 in WNW 9.0 mph 17.0 mph 64 % 0.00 in
11:50 34.9 °F 23.9 °F 29.77 in WNW 8.0 mph 14.0 mph 64 % 0.00 in
11:55 34.8 °F 23.5 °F 29.76 in West 6.9 mph 12.7 mph 63 % 0.00 in
12:01 34.8 °F 23.5 °F 29.77 in NW 4.9 mph 15.0 mph 63 % 0.00 in
12:06 34.7 °F 22.6 °F 29.77 in WNW 5.6 mph 16.1 mph 61 % 0.00 in
12:11 34.7 °F 22.2 °F 29.77 in NNW 5.5 mph 10.4 mph 60 % 0.00 in
12:16 34.8 °F 22.3 °F 29.77 in WNW 2.4 mph 11.5 mph 60 % 0.00 in
12:21 35.0 °F 22.5 °F 29.78 in NNW 6.8 mph 11.5 mph 60 % 0.00 in
12:26 35.1 °F 23.0 °F 29.78 in NNW 5.5 mph 14.0 mph 61 % 0.00 in
12:31 35.3 °F 22.8 °F 29.79 in West 9.5 mph 16.1 mph 60 % 0.00 in
12:36 35.3 °F 22.0 °F 29.79 in WNW 7.4 mph 15.0 mph 58 % 0.00 in
12:41 35.1 °F 21.4 °F 29.79 in WSW 6.6 mph 15.0 mph 57 % 0.00 in
12:46 34.8 °F 21.1 °F 29.80 in WNW 9.4 mph 15.0 mph 57 % 0.00 in
12:51 34.6 °F 20.9 °F 29.79 in WNW 7.8 mph 16.0 mph 57 % 0.00 in
12:56 34.4 °F 20.3 °F 29.79 in WSW 10.8 mph 20.7 mph 56 % 0.00 in
13:01 34.3 °F 19.8 °F 29.79 in WNW 5.8 mph 11.5 mph 55 % 0.00 in
13:06 34.3 °F 19.8 °F 29.79 in WNW 6.4 mph 17.3 mph 55 % 0.00 in
13:11 34.3 °F 19.8 °F 29.79 in NW 8.2 mph 12.7 mph 55 % 0.00 in
13:16 34.3 °F 18.9 °F 29.79 in WNW 8.8 mph 13.8 mph 53 % 0.00 in
13:21 34.3 °F 18.9 °F 29.79 in WNW 6.4 mph 17.3 mph 53 % 0.00 in
13:26 34.4 °F 19.0 °F 29.79 in NW 7.3 mph 16.1 mph 53 % 0.00 in
13:32 34.4 °F 18.1 °F 29.79 in WNW 7.2 mph 11.5 mph 51 % 0.00 in
13:37 34.4 °F 18.6 °F 29.80 in West 6.9 mph 15.0 mph 52 % 0.00 in
13:42 34.6 °F 18.8 °F 29.80 in WNW 11.0 mph 17.0 mph 52 % 0.00 in
13:47 34.6 °F 18.3 °F 29.80 in WNW 9.5 mph 16.1 mph 51 % 0.00 in
13:52 34.7 °F 17.9 °F 29.81 in WNW 9.5 mph 16.1 mph 50 % 0.00 in
13:57 34.7 °F 17.5 °F 29.82 in WNW 9.1 mph 16.1 mph 49 % 0.00 in
14:02 34.7 °F 18.4 °F 29.83 in WNW 6.5 mph 12.7 mph 51 % 0.00 in
14:07 34.8 °F 19.4 °F 29.83 in NNW 3.6 mph 10.4 mph 53 % 0.00 in
14:12 34.9 °F 18.1 °F 29.83 in NW 4.2 mph 10.4 mph 50 % 0.00 in
14:17 35.0 °F 18.2 °F 29.84 in WNW 8.8 mph 12.0 mph 50 % 0.00 in
14:22 35.0 °F 18.2 °F 29.84 in WNW 4.9 mph 11.0 mph 50 % 0.00 in
14:27 35.0 °F 18.7 °F 29.83 in WNW 4.1 mph 9.2 mph 51 % 0.00 in
14:32 34.8 °F 16.6 °F 29.84 in NNW 7.4 mph 13.8 mph 47 % 0.00 in
14:37 34.7 °F 17.0 °F 29.83 in WNW 5.8 mph 14.0 mph 48 % 0.00 in
14:42 34.5 °F 18.2 °F 29.84 in WNW 6.7 mph 11.5 mph 51 % 0.00 in
14:47 34.4 °F 18.1 °F 29.84 in NW 3.3 mph 9.2 mph 51 % 0.00 in
14:52 34.2 °F 17.5 °F 29.84 in NW 6.4 mph 11.5 mph 50 % 0.00 in
14:57 33.9 °F 15.8 °F 29.85 in WNW 6.1 mph 12.7 mph 47 % 0.00 in
15:02 33.6 °F 16.5 °F 29.85 in WNW 5.0 mph 9.0 mph 49 % 0.00 in
15:07 33.5 °F 16.4 °F 29.85 in NW 4.3 mph 5.8 mph 49 % 0.00 in
15:12 33.4 °F 16.3 °F 29.85 in WNW 4.7 mph 11.5 mph 49 % 0.00 in
15:17 33.3 °F 16.2 °F 29.85 in West 2.4 mph 5.8 mph 49 % 0.00 in
15:23 33.1 °F 15.0 °F 29.85 in WNW 6.1 mph 12.0 mph 47 % 0.00 in
15:28 32.9 °F 14.8 °F 29.85 in NW 6.9 mph 13.8 mph 47 % 0.00 in
15:33 32.7 °F 15.6 °F 29.85 in WSW 5.2 mph 8.1 mph 49 % 0.00 in
15:38 32.5 °F 15.4 °F 29.86 in WNW 4.7 mph 10.4 mph 49 % 0.00 in
15:43 32.4 °F 15.3 °F 29.86 in SW 5.7 mph 11.5 mph 49 % 0.00 in
15:48 32.3 °F 15.7 °F 29.86 in West 5.0 mph 11.5 mph 50 % 0.00 in
15:53 32.1 °F 15.5 °F 29.86 in NW 5.8 mph 10.4 mph 50 % 0.00 in
15:58 32.0 °F 15.4 °F 29.87 in WNW 5.0 mph 11.5 mph 50 % 0.00 in
16:03 31.9 °F 15.3 °F 29.87 in WNW 3.5 mph 12.0 mph 50 % 0.00 in
16:08 31.8 °F 15.7 °F 29.87 in West 4.0 mph 8.1 mph 51 % 0.00 in
16:13 31.7 °F 15.6 °F 29.88 in NW 5.8 mph 9.2 mph 51 % 0.00 in
16:18 31.7 °F 16.1 °F 29.88 in WSW 3.2 mph 8.1 mph 52 % 0.00 in
16:23 31.6 °F 15.1 °F 29.88 in NW 4.1 mph 9.2 mph 50 % 0.00 in
16:28 31.5 °F 15.4 °F 29.89 in WNW 3.5 mph 8.1 mph 51 % 0.00 in
16:33 31.4 °F 15.3 °F 29.90 in WNW 6.6 mph 9.2 mph 51 % 0.00 in
16:38 31.4 °F 15.3 °F 29.90 in West 3.1 mph 5.0 mph 51 % 0.00 in
16:43 31.3 °F 15.2 °F 29.90 in West 7.8 mph 11.0 mph 51 % 0.00 in
16:48 31.2 °F 15.6 °F 29.90 in West 4.5 mph 6.0 mph 52 % 0.00 in
16:53 31.1 °F 15.5 °F 29.90 in West 4.0 mph 9.2 mph 52 % 0.00 in
16:59 31.0 °F 15.4 °F 29.90 in WSW 5.2 mph 11.0 mph 52 % 0.00 in
17:04 30.9 °F 15.3 °F 29.91 in West 0.9 mph 5.8 mph 52 % 0.00 in
17:09 30.8 °F 15.2 °F 29.91 in West 4.0 mph 9.0 mph 52 % 0.00 in
17:14 30.7 °F 15.6 °F 29.91 in WSW 0.6 mph 6.0 mph 53 % 0.00 in
17:19 30.6 °F 15.5 °F 29.90 in West 2.5 mph 5.0 mph 53 % 0.00 in
17:24 30.5 °F 15.4 °F 29.90 in WNW 3.9 mph 9.2 mph 53 % 0.00 in
17:29 30.3 °F 15.2 °F 29.91 in WNW 3.1 mph 8.1 mph 53 % 0.00 in
17:34 30.2 °F 15.1 °F 29.91 in West 1.1 mph 3.5 mph 53 % 0.00 in
17:39 30.1 °F 15.0 °F 29.91 in NW 4.3 mph 6.9 mph 53 % 0.00 in
17:44 30.0 °F 14.9 °F 29.92 in WNW 2.0 mph 4.6 mph 53 % 0.00 in
17:49 29.9 °F 15.3 °F 29.92 in WNW 0.8 mph 5.0 mph 54 % 0.00 in
17:54 29.9 °F 15.3 °F 29.93 in West 4.4 mph 6.0 mph 54 % 0.00 in
17:59 29.8 °F 15.2 °F 29.94 in WNW 3.4 mph 8.0 mph 54 % 0.00 in
18:04 29.8 °F 15.2 °F 29.95 in West 1.3 mph 3.5 mph 54 % 0.00 in
18:09 29.7 °F 15.1 °F 29.96 in NW 4.0 mph 5.8 mph 54 % 0.00 in
18:14 29.7 °F 15.5 °F 29.95 in WNW 4.6 mph 6.9 mph 55 % 0.00 in
18:19 29.6 °F 15.0 °F 29.95 in NW 2.9 mph 9.2 mph 54 % 0.00 in
18:24 29.6 °F 15.0 °F 29.96 in WSW 3.2 mph 5.8 mph 54 % 0.00 in
18:29 29.6 °F 15.0 °F 29.96 in WNW 0.5 mph 4.6 mph 54 % 0.00 in
18:34 29.6 °F 15.0 °F 29.96 in NW 4.9 mph 5.0 mph 54 % 0.00 in
18:39 29.5 °F 14.9 °F 29.96 in WNW 5.1 mph 8.0 mph 54 % 0.00 in
18:44 29.4 °F 14.8 °F 29.98 in WNW 2.9 mph 8.0 mph 54 % 0.00 in
18:50 29.4 °F 14.8 °F 29.98 in WNW 5.5 mph 15.0 mph 54 % 0.00 in
18:55 29.4 °F 14.8 °F 29.98 in WNW 3.8 mph 8.1 mph 54 % 0.00 in
19:00 29.3 °F 14.7 °F 29.99 in NW 3.2 mph 4.6 mph 54 % 0.00 in
19:05 29.3 °F 14.7 °F 29.99 in WSW 0.8 mph 8.1 mph 54 % 0.00 in
19:10 29.2 °F 14.2 °F 30.00 in WNW 6.3 mph 10.4 mph 53 % 0.00 in
19:15 29.2 °F 14.2 °F 30.00 in NW 5.6 mph 10.4 mph 53 % 0.00 in
19:20 29.1 °F 14.1 °F 30.00 in WNW 4.4 mph 10.4 mph 53 % 0.00 in
19:25 29.1 °F 14.1 °F 30.00 in West 4.4 mph 11.5 mph 53 % 0.00 in
19:30 29.0 °F 14.0 °F 30.00 in WNW 5.1 mph 11.0 mph 53 % 0.00 in
19:35 29.0 °F 14.0 °F 30.00 in WSW 3.3 mph 4.6 mph 53 % 0.00 in
19:40 28.9 °F 13.9 °F 30.01 in NW 6.5 mph 10.4 mph 53 % 0.00 in
19:45 28.8 °F 14.2 °F 30.01 in NW 5.5 mph 11.5 mph 54 % 0.00 in
19:50 28.8 °F 14.2 °F 30.01 in West 4.3 mph 8.1 mph 54 % 0.00 in
19:55 28.7 °F 14.1 °F 30.01 in WNW 4.7 mph 6.9 mph 54 % 0.00 in
20:00 28.6 °F 14.5 °F 30.01 in NW 4.1 mph 6.0 mph 55 % 0.00 in
20:05 28.5 °F 14.4 °F 30.01 in West 4.9 mph 10.0 mph 55 % 0.00 in
20:10 28.4 °F 14.3 °F 30.01 in WNW 4.6 mph 8.1 mph 55 % 0.00 in
20:16 28.4 °F 13.9 °F 30.02 in WNW 4.7 mph 7.0 mph 54 % 0.00 in
20:21 28.3 °F 13.8 °F 30.02 in West 2.0 mph 6.0 mph 54 % 0.00 in
20:26 28.2 °F 13.7 °F 30.02 in West 5.0 mph 10.0 mph 54 % 0.00 in
20:31 28.1 °F 13.6 °F 30.01 in West 5.0 mph 10.0 mph 54 % 0.00 in
20:36 28.1 °F 13.6 °F 30.01 in WNW 2.7 mph 6.9 mph 54 % 0.00 in
20:41 28.0 °F 13.1 °F 30.01 in WNW 2.0 mph 9.0 mph 53 % 0.00 in
20:46 27.9 °F 13.0 °F 30.02 in WNW 3.0 mph 13.0 mph 53 % 0.00 in
20:51 27.9 °F 13.4 °F 30.02 in WNW 5.0 mph 9.0 mph 54 % 0.00 in
20:56 27.9 °F 13.8 °F 30.02 in WNW 5.0 mph 12.0 mph 55 % 0.00 in
21:01 27.9 °F 14.2 °F 30.02 in WNW 1.8 mph 3.5 mph 56 % 0.00 in
21:06 27.8 °F 14.1 °F 30.02 in WNW 3.0 mph 13.0 mph 56 % 0.00 in
21:11 27.8 °F 14.1 °F 30.03 in WNW 3.0 mph 10.0 mph 56 % 0.00 in
21:16 27.7 °F 13.6 °F 30.04 in West 3.0 mph 8.0 mph 55 % 0.00 in
21:21 27.7 °F 13.6 °F 30.03 in WNW 2.0 mph 6.0 mph 55 % 0.00 in
21:26 27.6 °F 13.9 °F 30.03 in WNW 2.0 mph 8.0 mph 56 % 0.00 in
21:31 27.5 °F 13.8 °F 30.04 in WNW 2.0 mph 5.0 mph 56 % 0.00 in
21:36 27.4 °F 14.2 °F 30.04 in WNW 1.0 mph 7.0 mph 57 % 0.00 in
21:41 27.3 °F 14.1 °F 30.04 in West 3.0 mph 10.0 mph 57 % 0.00 in
21:46 27.2 °F 14.0 °F 30.04 in WNW 3.0 mph 8.0 mph 57 % 0.00 in
21:51 27.2 °F 14.0 °F 30.05 in West 2.0 mph 6.0 mph 57 % 0.00 in
21:56 27.1 °F 13.9 °F 30.05 in West 3.0 mph 6.0 mph 57 % 0.00 in
22:01 27.0 °F 13.8 °F 30.05 in North 3.1 mph 5.8 mph 57 % 0.00 in
22:06 26.9 °F 13.7 °F 30.05 in West 2.2 mph 3.5 mph 57 % 0.00 in
22:11 26.8 °F 13.6 °F 30.05 in WNW 3.6 mph 5.8 mph 57 % 0.00 in
22:16 26.7 °F 13.9 °F 30.05 in WNW 4.5 mph 8.1 mph 58 % 0.00 in
22:21 26.7 °F 13.9 °F 30.05 in WNW 0.7 mph 3.5 mph 58 % 0.00 in
22:26 26.6 °F 13.8 °F 30.05 in Calm   2.3 mph 58 % 0.00 in
22:31 26.5 °F 13.7 °F 30.05 in WNW 1.8 mph 5.8 mph 58 % 0.00 in
22:36 26.5 °F 14.1 °F 30.04 in WNW 3.2 mph 5.8 mph 59 % 0.00 in
22:41 26.4 °F 13.6 °F 30.04 in WNW 1.7 mph 3.5 mph 58 % 0.00 in
22:46 26.3 °F 13.9 °F 30.04 in WNW 0.8 mph 3.5 mph 59 % 0.00 in
22:51 26.2 °F 14.2 °F 30.04 in WNW 1.1 mph 3.5 mph 60 % 0.00 in
22:56 26.1 °F 14.1 °F 30.04 in WNW 0.3 mph 2.3 mph 60 % 0.00 in
23:01 26.0 °F 14.0 °F 30.04 in WNW 1.2 mph 2.3 mph 60 % 0.00 in
23:06 25.9 °F 14.3 °F 30.04 in Calm   1.2 mph 61 % 0.00 in
23:11 25.8 °F 14.2 °F 30.04 in Calm   1.0 mph 61 % 0.00 in
23:16 25.7 °F 14.1 °F 30.04 in WSW 0.2 mph 2.3 mph 61 % 0.00 in
23:22 25.6 °F 14.0 °F 30.05 in Calm     61 % 0.00 in
23:27 25.5 °F 14.3 °F 30.04 in Calm     62 % 0.00 in
23:32 25.4 °F 14.2 °F 30.05 in WSW 0.5 mph 2.3 mph 62 % 0.00 in
23:37 25.3 °F 14.1 °F 30.05 in Calm     62 % 0.00 in
23:42 25.2 °F 14.4 °F 30.06 in Calm     63 % 0.00 in
23:47 25.1 °F 14.3 °F 30.05 in WNW 1.9 mph 3.5 mph 63 % 0.00 in
23:52 25.0 °F 14.5 °F 30.05 in Calm     64 % 0.00 in
23:57 24.9 °F 14.4 °F 30.06 in WNW 1.1 mph 3.5 mph 64 % 0.00 in
Crab Meadow Weather
Compliments of Weather Underground - 3 mb

Script developed by  Jim McMurry - jmcmurry@mwt.net Adapted for the template by  Wim van der Kuil - Leuven-Template.eu

Weather Terms: Tornado Watch - Conditions are favorable for the development of severe thunderstorms and tornadoes in and close to the watch area. These watches are issued for large areas by the Storm Prediction Center in Norman, Oklahoma, and are usually valid for four to six hours.